ハートレー第2彗星

103P/Hartley 2 (2023)

English version
Home page
Updated on June 29, 2024

---------------------------------------------------------------------

・ プロフィール

・ 写真集

・ 軌道要素

Epoch 2024 Mar. 31.0 TT = JDT 2460400.5
T 2023 Oct. 12.50692 TT                                 Rudenko
q   1.0641144            (2000.0)            P               Q
n   0.15218970     Peri.  181.30068     +0.75454673     -0.63876242
a   3.4743951      Node   219.74911     +0.60419906     +0.76568642
e   0.6937267      Incl.   13.61067     +0.25613028     +0.07554387
P   6.48
>From 9089 observations 2004 Sept. 20-2024 May 5, mean residual 0".7.
     Nongravitational parameters A1 = +0.11, A2 = +0.0236.

・ 星図

・ 光度変化

        H = 16.8  G = 0.15                        [    ,-270]  (              〜2023年 1月15日)
        m1 = 10.0 + 5 logΔ + 20.0 log r          [-270,   0]  (2023年 1月15日〜2023年10月12日)
        m1 = 10.0 + 5 logΔ + 15.0 log r(t - 10)  [   0, 165]  (2023年10月12日〜2024年 3月25日)
        m1 = 11.5 + 5 logΔ + 10.0 log r          [ 165,    ]  (2024年 3月25日〜              )

---------------------------------------------------------------------

軌道要素はM.P.E.C. 2024-L140に掲載されたものです。
星図はステラナビゲータ Ver.10 (アストロアーツ) で作成したものです。
光度グラフはComet for Windowsで作成したものです。

---------------------------------------------------------------------

Copyright(C) Seiichi Yoshida (comet@aerith.net). All rights reserved.